SCP
0 0 0 0 0 0 0 0 0 0 0 0 0 0 0 0 0 0 0 0 0 0 0 0 0 0 0 0 0 0 0 0 0 0 0 0 0 0 0 0 0 0 0 0
0 0 0 0 0 0 0 0 0 0 0 0 0 0 0 0 0 0 0 0 0 0 0 0 0 0 0 0 0 0 0 0 0 0 0 0 0 0 0 0 0 0 0 0
0 0 0 0 0 0 0 0 0 0 0 0 0 0 0 0 0 0 0 0 0 0 0 0 0 0 0 0 0 0 0 0 0 0 0 0 0 0 0 0 0 0 0 0
0 0 0 0 0 0 0 0 0 0 0 0 0 0 0 0 0 0 0 0 0 0 0 0 0 0 0 0 0 0 0 0 0 0 0 0 0 0 0 0 0 0 0 0
0 0 0 0 0 0 0 0 0 0 0 0 0 0 0 0 0 0 0 0 0 0 0 0 0 0 0 0 0 0 0 0 0 0 0 0 0 0 0 0 0 0 0 0
0 0 0 0 0 0 0 0 0 0 0 0 0 0 0 0 0 0 0 0 0 0 0 0 0 0 0 0 0 0 0 0 0 0 0 0 0 0 0 0 0 0 0 0
0 0 0 0 0 0 0 0 0 0 0 0 0 0 0 0 0 0 0 0 0 0 0 0 0 0 0 0 0 0 0 0 0 0 0 0 0 0 0 0 0 0 0 0
0 0 0 0 0 0 0 0 0 0 0 0 0 0 0 0 0 0 0 0 0 0 0 0 0 0 0 0 0 0 0 0 0 0 0 0 0 0 0 0 0 0 0 0
0 0 0 0 0 0 0 0 0 0 0 0 0 0 0 0 0 0 0 0 0 0 0 0 0 0 0 0 0 0 0 0 0 0 0 0 0 0 0 0 0 0 0 0
0 0 0 0 0 0 0 0 0 0 0 0 0 0 0 0 0 0 0 0 0 0 0 0 0 0 0 0 0 0 0 0 0 0 0 0 0 0 0 0 0 0 0 0
0 0 0 0 0 0 0 0 0 0 0 0 0 0 0 0 0 0 0 0 0 0 0 0 0 0 0 0 0 0 0 0 0 0 0 0 0 0 0 0 0 0 0 0
0 0 0 0 0 0 0 0 0 0 0 0 0 0 0 0 0 0 0 0 0 0 0 0 0 0 0 0 0 0 0 0 0 0 0 0 0 0 0 0 0 0 0 0
0 0 0 0 0 0 0 0 0 0 0 0 0 0 0 0 0 0 0 0 0 0 0 0 0 0 0 0 0 0 0 0 0 0 0 0 0 0 0 0 0 0 0 0
0 0 0 0 0 0 0 0 0 0 0 0 0 0 0 0 0 0 0 0 0 0 0 0 0 0 0 0 0 0 0 0 0 0 0 0 0 0 0 0 0 0 0 0
0 0 0 0 0 0 0 0 0 0 0 0 0 0 0 0 0 0 0 0 0 0 0 0 0 0 0 0 0 0 0 0 0 0 0 0 0 0 0 0 0 0 0 0
0 0 0 0 0 0 0 0 0 0 0 0 0 0 0 0 0 0 0 0 0 0 0 0 0 0 0 0 0 0 0 0 0 0 0 0 0 0 0 0 0 0 0 0
0 0 0 0 0 0 0 0 0 0 0 0 0 0 0 0 0 0 0 0 0 0 0 0 0 0 0 0 0 0 0 0 0 0 0 0 0 0 0 0 0 0 0 0
0 0 0 0 0 0 0 0 0 0 0 0 0 0 0 0 0 0 0 0 0 0 0 0 0 0 0 0 0 0 0 0 0 0 0 0 0 0 0 0 0 0 0 0
0 0 0 0 0 0 0 0 0 0 0 0 0 0 0 0 0 0 0 0 0 0 0 0 0 0 0 0 0 0 0 0 0 0 0 0 0 0 0 0 0 0 0 0
0 0 0 0 0 0 0 0 0 0 0 0 0 0 0 0 0 0 0 0 0 0 0 0 0 0 0 0 0 0 0 0 0 0 0 0 0 0 0 0 0 0 0 0
0 0 0 0 0 0 0 0 0 0 0 0 0 0 0 0 0 0 0 0 0 0 0 0 0 0 0 0 0 0 0 0 0 0 0 0 0 0 0 0 0 0 0 0
0 0 0 0 0 0 0 0 0 0 0 0 0 0 0 0 0 0 0 0 0 0 0 0 0 0 0 0 0 0 0 0 0 0 0 0 0 0 0 0 0 0 0 0
0 0 0 0 0 0 0 0 0 0 0 0 0 0 0 0 0 0 0 0 0 0 0 0 0 0 0 0 0 0 0 0 0 0 0 0 0 0 0 0 0 0 0 0
0 0 0 0 0 0 0 0 0 0 0 0 0 0 0 0 0 0 0 0 0 0 0 0 0 0 0 0 0 0 0 0 0 0 0 0 0 0 0 0 0 0 0 0
0 0 0 0 0 0 0 0 0 0 0 0 0 0 0 0 0 0 0 0 0 0 0 0 0 0 0 0 0 0 0 0 0 0 0 0 0 0 0 0 0 0 0 0
0 0 0 0 0 0 0 0 0 0 0 0 0 0 0 0 0 0 0 0 0 0 0 0 0 0 0 0 0 0 0 0 0 0 0 0 0 0 0 0 0 0 0 0
0 0 0 0 0 0 0 0 0 0 0 0 0 0 0 0 0 0 0 0 0 0 0 0 0 0 0 0 0 0 0 0 0 0 0 0 0 0 0 0 0 -0 0 0
Wind_Speed_500mb
39 39 34 30 23 16 9 4 3 17 14 3 3 4 7 3 6 6 8 9 8 6 9 8 5 5 7 28 7 5 7 0 3 6 9 1 6 6 4 5 3 2 4 5
38 36 35 33 27 20 12 9 6 17 8 5 3 4 4 3 5 8 4 6 5 6 6 4 4 3 7 25 13 6 8 3 5 5 6 4 4 3 6 4 2 16 13 3
39 35 35 35 32 26 20 11 5 5 7 3 4 4 3 5 2 3 10 8 7 6 6 11 5 4 10 15 11 12 3 4 5 11 8 5 9 16 2 4 7 8 15 27
44 40 38 38 36 32 27 12 6 9 8 9 6 2 0 6 6 4 8 9 8 7 6 3 4 3 5 5 17 8 5 3 4 9 10 10 18 24 17 19 20 15 27 15
45 38 37 39 43 39 30 13 10 10 5 6 14 1 6 8 7 3 5 13 6 6 7 2 6 1 3 3 7 7 6 2 4 19 10 5 18 27 26 28 22 19 16 19
52 45 37 40 47 43 17 17 15 11 4 7 9 7 8 10 16 8 7 22 11 9 8 8 5 5 2 4 5 3 3 4 2 8 9 14 20 6 8 4 5 6 11 7
56 51 44 43 51 50 23 28 21 8 6 7 8 14 4 8 4 12 9 9 8 6 7 3 4 3 5 4 2 11 6 5 4 6 7 7 7 15 5 4 3 5 10 5
58 53 48 44 50 55 33 31 14 9 7 5 7 17 11 16 17 12 11 10 12 15 6 2 4 1 4 6 9 7 7 3 3 6 3 14 12 10 10 10 6 10 9 13
61 55 51 47 54 53 45 30 20 8 12 9 11 8 7 8 7 6 7 13 13 7 7 3 3 3 3 3 0 11 10 4 5 4 6 8 13 20 17 9 10 13 15 15
66 59 53 48 54 53 54 31 24 10 8 13 14 4 7 10 9 7 6 5 4 5 4 4 5 4 2 4 4 1 1 2 8 8 10 8 12 23 15 11 10 16 17 19
69 64 54 48 57 56 52 35 30 13 8 17 12 10 8 11 9 6 12 9 3 4 5 4 5 4 2 5 3 3 3 4 5 4 8 6 16 10 12 9 12 15 13 17
73 66 59 49 58 54 53 32 33 20 11 15 23 21 18 16 11 15 13 6 6 5 6 3 5 5 4 2 7 3 6 5 4 7 6 3 6 9 18 21 26 18 26 40
76 69 65 50 61 58 58 39 35 27 29 23 21 18 19 16 14 11 8 7 9 7 9 7 4 4 4 7 7 3 3 2 6 7 3 13 24 25 12 29 32 39 50 49
79 72 68 59 64 62 58 47 40 18 16 10 5 17 15 9 5 3 4 6 11 15 11 6 3 4 7 4 4 5 4 3 8 19 19 32 11 25 34 35 36 39 42 43
82 75 69 67 65 64 53 45 43 22 6 9 14 18 17 14 9 6 8 11 15 11 6 4 4 2 5 3 2 7 4 6 8 10 24 16 35 39 42 40 41 43 42 45
84 80 67 70 66 64 45 15 36 33 19 10 8 12 18 17 11 10 11 12 11 9 6 5 4 5 2 3 4 1 6 14 15 13 25 33 42 41 37 38 48 48 47 48
85 82 70 69 67 63 30 16 30 44 23 9 12 8 15 19 13 11 11 10 10 7 6 4 4 5 5 3 6 5 17 21 17 9 22 24 23 40 51 54 57 52 52 52
89 80 75 71 67 49 15 18 49 47 17 9 9 6 11 22 7 6 7 5 5 6 6 4 4 6 3 7 10 12 17 23 12 23 22 32 44 48 50 51 52 54 57 56
97 88 82 73 44 28 29 42 41 32 12 13 8 14 10 25 9 8 5 5 3 4 3 4 6 4 9 7 5 10 14 17 29 45 45 44 48 51 54 56 54 57 61 58
105 101 55 25 34 44 45 19 13 12 3 5 6 13 8 16 8 5 7 3 4 4 4 6 6 6 14 13 11 15 20 22 26 36 49 57 61 58 61 64 70 71 69 69
110 31 13 65 60 31 8 9 7 5 1 11 11 11 18 14 9 7 2 5 5 5 6 5 4 5 7 6 8 17 22 30 36 36 44 46 48 58 66 72 71 71 68 65
55 52 74 58 17 9 8 6 8 8 12 18 19 17 16 15 11 8 6 4 4 4 11 5 5 4 6 8 17 24 27 37 48 46 46 49 58 58 60 62 62 67 74 78
102 33 13 14 7 8 19 21 8 9 21 24 27 23 14 12 7 10 6 8 5 11 6 5 2 10 3 16 24 29 32 38 44 54 57 57 57 55 55 60 65 80 76 75
13 12 14 10 12 13 12 13 12 15 25 60 52 19 10 10 8 8 8 5 9 6 6 5 5 7 12 22 26 33 43 50 55 56 51 58 55 58 56 63 72 69 74 61
12 11 9 10 10 8 16 19 22 25 59 63 38 18 10 6 8 4 7 9 8 8 4 4 5 10 20 25 31 38 44 54 56 52 52 59 47 56 52 62 60 61 48 47
7 5 8 12 17 13 21 24 30 48 71 55 18 9 6 4 9 8 9 12 10 6 7 6 8 16 21 26 33 41 47 52 50 48 51 42 49 46 52 50 54 44 32 35
5 1 9 10 18 22 22 31 34 71 48 7 10 8 4 11 7 9 6 6 5 16 11 7 14 20 21 28 33 41 52 50 44 46 31 40 37 44 43 45 40 31 26 25
Wind_Direction_500mb
232 229 225 219 216 221 215 189 152 165 158 121 30 180 198 303 324 32 81 90 84 80 40 54 90 102 11 349 299 34 11 41 348 3 15 316 61 78 56 332 283 192 266 266
226 227 220 211 206 200 179 155 117 169 166 174 193 261 257 262 18 25 82 91 50 55 66 98 58 59 26 11 35 35 354 32 314 163 197 153 40 48 82 75 313 240 272 286
224 224 220 206 198 192 181 162 138 141 201 153 150 174 180 149 26 65 73 102 99 108 69 37 109 53 12 3 39 11 154 87 278 277 321 326 297 300 65 231 257 298 266 297
216 218 215 201 195 189 180 178 177 169 172 208 169 178 115 142 123 72 56 66 84 124 110 72 75 30 16 31 12 26 39 311 284 266 248 249 266 276 284 251 266 268 302 290
216 219 222 202 191 188 186 175 161 155 124 155 167 269 192 149 133 43 80 124 126 96 122 118 175 135 14 346 350 27 8 281 306 282 277 259 276 278 279 277 274 261 259 274
214 215 218 203 192 185 188 193 162 143 163 136 163 192 175 176 141 57 77 138 120 105 117 118 107 208 278 327 323 347 318 197 282 271 4 316 282 39 350 138 221 276 266 321
209 212 216 205 191 187 186 176 163 159 146 193 180 169 207 149 132 125 98 107 105 139 141 156 284 284 320 293 328 228 192 179 218 295 306 257 47 323 246 210 200 270 273 269
207 208 212 210 195 187 190 185 170 156 121 139 136 155 137 109 93 83 91 71 109 133 122 90 349 358 157 76 36 12 218 200 198 284 277 314 138 43 349 352 333 9 327 324
207 207 210 211 195 190 190 190 178 148 134 194 134 131 142 131 107 89 79 91 118 117 70 88 162 289 351 306 204 76 99 65 250 159 255 271 46 346 339 279 257 31 11 1
205 208 210 209 194 190 191 194 185 143 109 148 144 124 150 138 111 102 128 149 104 110 120 152 186 218 319 258 260 230 351 54 247 222 253 267 5 326 324 255 10 336 329 330
202 205 207 205 190 190 187 189 183 154 102 136 146 136 139 139 150 144 155 148 121 102 140 185 156 214 159 262 258 299 273 262 220 183 237 251 358 349 4 325 292 290 312 327
200 201 202 202 187 184 180 181 172 152 115 133 127 120 114 114 126 130 142 122 113 141 111 166 140 172 196 261 277 150 238 263 318 246 333 176 296 352 332 312 299 290 305 308
197 198 197 197 182 179 179 175 163 135 121 119 128 126 123 111 110 115 140 160 149 144 122 126 101 214 185 230 230 241 233 160 262 287 120 321 319 312 306 316 296 296 306 305
194 194 192 187 177 177 174 174 170 146 137 119 136 155 154 140 121 170 161 141 148 139 119 91 130 203 207 232 2 264 307 221 275 278 298 320 306 308 311 307 301 302 303 302
190 189 187 180 175 173 171 175 180 169 141 119 127 136 142 132 103 97 120 149 154 138 121 148 165 183 216 108 219 251 245 340 281 293 312 289 293 308 310 304 303 307 307 301
185 183 180 173 171 167 158 163 193 185 149 114 136 130 147 139 120 114 119 127 126 124 128 128 162 191 244 243 239 326 12 313 290 278 299 293 297 312 323 313 311 309 306 303
179 176 172 167 164 161 165 178 174 180 168 135 108 110 159 157 137 115 100 93 107 119 113 118 156 165 189 218 238 120 342 339 337 2 330 312 313 310 313 312 310 308 303 300
170 164 161 158 156 164 153 146 156 167 160 130 120 107 149 171 155 123 133 123 125 79 103 137 187 163 217 244 240 306 326 330 323 329 316 299 307 310 312 311 311 311 308 307
157 154 152 150 151 153 138 147 151 158 158 140 141 156 167 165 133 123 119 150 130 109 175 196 194 169 227 212 227 307 325 330 320 324 324 323 318 317 316 314 311 307 305 304
149 145 136 148 158 147 141 127 142 158 192 130 114 130 130 157 142 120 142 90 106 199 134 150 228 250 254 237 267 317 322 324 328 323 321 324 319 316 313 309 309 308 303 301
144 146 107 136 140 141 109 108 142 141 113 188 153 146 133 157 155 128 131 135 153 220 138 243 209 243 184 207 294 315 317 324 324 317 310 310 308 305 312 311 310 310 306 302
157 133 123 125 134 116 109 120 136 201 199 173 154 148 128 137 136 116 148 140 190 199 146 224 237 169 184 310 318 327 332 330 327 328 320 315 321 326 319 315 314 314 315 310
124 112 113 139 152 146 179 175 190 194 171 167 157 138 132 123 117 95 148 174 175 129 199 238 237 164 266 328 329 328 330 328 326 326 325 321 329 327 320 320 323 325 320 315
100 119 134 181 179 209 190 185 163 166 167 158 150 123 126 131 126 134 168 111 153 195 226 225 146 186 322 333 334 331 331 334 331 326 326 330 325 325 328 332 334 332 329 337
95 128 146 180 177 153 168 150 133 146 152 145 130 92 105 111 121 174 123 163 205 220 211 132 149 325 330 336 337 334 332 331 329 328 332 331 322 332 336 341 341 342 357 9
77 111 132 133 131 137 151 154 139 148 149 145 111 114 119 127 135 159 188 177 200 159 144 135 354 340 334 336 336 337 335 333 337 337 337 327 335 342 345 346 347 354 18 28
71 37 165 143 126 141 149 152 148 155 151 118 121 114 109 123 147 157 188 188 129 136 124 40 343 334 337 334 338 343 341 336 340 345 340 338 351 352 355 355 359 9 34 52
Wind_Speed_850mb
39 39 34 30 23 16 9 4 3 17 14 3 3 4 7 3 6 6 8 9 8 6 9 8 5 5 7 28 7 5 7 0 3 6 9 1 6 6 4 5 3 2 4 5
38 36 35 33 27 20 12 9 6 17 8 5 3 4 4 3 5 8 4 6 5 6 6 4 4 3 7 25 13 6 8 3 5 5 6 4 4 3 6 4 2 16 13 3
39 35 35 35 32 26 20 11 5 5 7 3 4 4 3 5 2 3 10 8 7 6 6 11 5 4 10 15 11 12 3 4 5 11 8 5 9 16 2 4 7 8 15 27
44 40 38 38 36 32 27 12 6 9 8 9 6 2 0 6 6 4 8 9 8 7 6 3 4 3 5 5 17 8 5 3 4 9 10 10 18 24 17 19 20 15 27 15
45 38 37 39 43 39 30 13 10 10 5 6 14 1 6 8 7 3 5 13 6 6 7 2 6 1 3 3 7 7 6 2 4 19 10 5 18 27 26 28 22 19 16 19
52 45 37 40 47 43 17 17 15 11 4 7 9 7 8 10 16 8 7 22 11 9 8 8 5 5 2 4 5 3 3 4 2 8 9 14 20 6 8 4 5 6 11 7
56 51 44 43 51 50 23 28 21 8 6 7 8 14 4 8 4 12 9 9 8 6 7 3 4 3 5 4 2 11 6 5 4 6 7 7 7 15 5 4 3 5 10 5
58 53 48 44 50 55 33 31 14 9 7 5 7 17 11 16 17 12 11 10 12 15 6 2 4 1 4 6 9 7 7 3 3 6 3 14 12 10 10 10 6 10 9 13
61 55 51 47 54 53 45 30 20 8 12 9 11 8 7 8 7 6 7 13 13 7 7 3 3 3 3 3 0 11 10 4 5 4 6 8 13 20 17 9 10 13 15 15
66 59 53 48 54 53 54 31 24 10 8 13 14 4 7 10 9 7 6 5 4 5 4 4 5 4 2 4 4 1 1 2 8 8 10 8 12 23 15 11 10 16 17 19
69 64 54 48 57 56 52 35 30 13 8 17 12 10 8 11 9 6 12 9 3 4 5 4 5 4 2 5 3 3 3 4 5 4 8 6 16 10 12 9 12 15 13 17
73 66 59 49 58 54 53 32 33 20 11 15 23 21 18 16 11 15 13 6 6 5 6 3 5 5 4 2 7 3 6 5 4 7 6 3 6 9 18 21 26 18 26 40
76 69 65 50 61 58 58 39 35 27 29 23 21 18 19 16 14 11 8 7 9 7 9 7 4 4 4 7 7 3 3 2 6 7 3 13 24 25 12 29 32 39 50 49
79 72 68 59 64 62 58 47 40 18 16 10 5 17 15 9 5 3 4 6 11 15 11 6 3 4 7 4 4 5 4 3 8 19 19 32 11 25 34 35 36 39 42 43
82 75 69 67 65 64 53 45 43 22 6 9 14 18 17 14 9 6 8 11 15 11 6 4 4 2 5 3 2 7 4 6 8 10 24 16 35 39 42 40 41 43 42 45
84 80 67 70 66 64 45 15 36 33 19 10 8 12 18 17 11 10 11 12 11 9 6 5 4 5 2 3 4 1 6 14 15 13 25 33 42 41 37 38 48 48 47 48
85 82 70 69 67 63 30 16 30 44 23 9 12 8 15 19 13 11 11 10 10 7 6 4 4 5 5 3 6 5 17 21 17 9 22 24 23 40 51 54 57 52 52 52
89 80 75 71 67 49 15 18 49 47 17 9 9 6 11 22 7 6 7 5 5 6 6 4 4 6 3 7 10 12 17 23 12 23 22 32 44 48 50 51 52 54 57 56
97 88 82 73 44 28 29 42 41 32 12 13 8 14 10 25 9 8 5 5 3 4 3 4 6 4 9 7 5 10 14 17 29 45 45 44 48 51 54 56 54 57 61 58
105 101 55 25 34 44 45 19 13 12 3 5 6 13 8 16 8 5 7 3 4 4 4 6 6 6 14 13 11 15 20 22 26 36 49 57 61 58 61 64 70 71 69 69
110 31 13 65 60 31 8 9 7 5 1 11 11 11 18 14 9 7 2 5 5 5 6 5 4 5 7 6 8 17 22 30 36 36 44 46 48 58 66 72 71 71 68 65
55 52 74 58 17 9 8 6 8 8 12 18 19 17 16 15 11 8 6 4 4 4 11 5 5 4 6 8 17 24 27 37 48 46 46 49 58 58 60 62 62 67 74 78
102 33 13 14 7 8 19 21 8 9 21 24 27 23 14 12 7 10 6 8 5 11 6 5 2 10 3 16 24 29 32 38 44 54 57 57 57 55 55 60 65 80 76 75
13 12 14 10 12 13 12 13 12 15 25 60 52 19 10 10 8 8 8 5 9 6 6 5 5 7 12 22 26 33 43 50 55 56 51 58 55 58 56 63 72 69 74 61
12 11 9 10 10 8 16 19 22 25 59 63 38 18 10 6 8 4 7 9 8 8 4 4 5 10 20 25 31 38 44 54 56 52 52 59 47 56 52 62 60 61 48 47
7 5 8 12 17 13 21 24 30 48 71 55 18 9 6 4 9 8 9 12 10 6 7 6 8 16 21 26 33 41 47 52 50 48 51 42 49 46 52 50 54 44 32 35
5 1 9 10 18 22 22 31 34 71 48 7 10 8 4 11 7 9 6 6 5 16 11 7 14 20 21 28 33 41 52 50 44 46 31 40 37 44 43 45 40 31 26 25
Wind_Direction_850mb
232 229 225 219 216 221 215 189 152 165 158 121 30 180 198 303 324 32 81 90 84 80 40 54 90 102 11 349 299 34 11 41 348 3 15 316 61 78 56 332 283 192 266 266
226 227 220 211 206 200 179 155 117 169 166 174 193 261 257 262 18 25 82 91 50 55 66 98 58 59 26 11 35 35 354 32 314 163 197 153 40 48 82 75 313 240 272 286
224 224 220 206 198 192 181 162 138 141 201 153 150 174 180 149 26 65 73 102 99 108 69 37 109 53 12 3 39 11 154 87 278 277 321 326 297 300 65 231 257 298 266 297
216 218 215 201 195 189 180 178 177 169 172 208 169 178 115 142 123 72 56 66 84 124 110 72 75 30 16 31 12 26 39 311 284 266 248 249 266 276 284 251 266 268 302 290
216 219 222 202 191 188 186 175 161 155 124 155 167 269 192 149 133 43 80 124 126 96 122 118 175 135 14 346 350 27 8 281 306 282 277 259 276 278 279 277 274 261 259 274
214 215 218 203 192 185 188 193 162 143 163 136 163 192 175 176 141 57 77 138 120 105 117 118 107 208 278 327 323 347 318 197 282 271 4 316 282 39 350 138 221 276 266 321
209 212 216 205 191 187 186 176 163 159 146 193 180 169 207 149 132 125 98 107 105 139 141 156 284 284 320 293 328 228 192 179 218 295 306 257 47 323 246 210 200 270 273 269
207 208 212 210 195 187 190 185 170 156 121 139 136 155 137 109 93 83 91 71 109 133 122 90 349 358 157 76 36 12 218 200 198 284 277 314 138 43 349 352 333 9 327 324
207 207 210 211 195 190 190 190 178 148 134 194 134 131 142 131 107 89 79 91 118 117 70 88 162 289 351 306 204 76 99 65 250 159 255 271 46 346 339 279 257 31 11 1
205 208 210 209 194 190 191 194 185 143 109 148 144 124 150 138 111 102 128 149 104 110 120 152 186 218 319 258 260 230 351 54 247 222 253 267 5 326 324 255 10 336 329 330
202 205 207 205 190 190 187 189 183 154 102 136 146 136 139 139 150 144 155 148 121 102 140 185 156 214 159 262 258 299 273 262 220 183 237 251 358 349 4 325 292 290 312 327
200 201 202 202 187 184 180 181 172 152 115 133 127 120 114 114 126 130 142 122 113 141 111 166 140 172 196 261 277 150 238 263 318 246 333 176 296 352 332 312 299 290 305 308
197 198 197 197 182 179 179 175 163 135 121 119 128 126 123 111 110 115 140 160 149 144 122 126 101 214 185 230 230 241 233 160 262 287 120 321 319 312 306 316 296 296 306 305
194 194 192 187 177 177 174 174 170 146 137 119 136 155 154 140 121 170 161 141 148 139 119 91 130 203 207 232 2 264 307 221 275 278 298 320 306 308 311 307 301 302 303 302
190 189 187 180 175 173 171 175 180 169 141 119 127 136 142 132 103 97 120 149 154 138 121 148 165 183 216 108 219 251 245 340 281 293 312 289 293 308 310 304 303 307 307 301
185 183 180 173 171 167 158 163 193 185 149 114 136 130 147 139 120 114 119 127 126 124 128 128 162 191 244 243 239 326 12 313 290 278 299 293 297 312 323 313 311 309 306 303
179 176 172 167 164 161 165 178 174 180 168 135 108 110 159 157 137 115 100 93 107 119 113 118 156 165 189 218 238 120 342 339 337 2 330 312 313 310 313 312 310 308 303 300
170 164 161 158 156 164 153 146 156 167 160 130 120 107 149 171 155 123 133 123 125 79 103 137 187 163 217 244 240 306 326 330 323 329 316 299 307 310 312 311 311 311 308 307
157 154 152 150 151 153 138 147 151 158 158 140 141 156 167 165 133 123 119 150 130 109 175 196 194 169 227 212 227 307 325 330 320 324 324 323 318 317 316 314 311 307 305 304
149 145 136 148 158 147 141 127 142 158 192 130 114 130 130 157 142 120 142 90 106 199 134 150 228 250 254 237 267 317 322 324 328 323 321 324 319 316 313 309 309 308 303 301
144 146 107 136 140 141 109 108 142 141 113 188 153 146 133 157 155 128 131 135 153 220 138 243 209 243 184 207 294 315 317 324 324 317 310 310 308 305 312 311 310 310 306 302
157 133 123 125 134 116 109 120 136 201 199 173 154 148 128 137 136 116 148 140 190 199 146 224 237 169 184 310 318 327 332 330 327 328 320 315 321 326 319 315 314 314 315 310
124 112 113 139 152 146 179 175 190 194 171 167 157 138 132 123 117 95 148 174 175 129 199 238 237 164 266 328 329 328 330 328 326 326 325 321 329 327 320 320 323 325 320 315
100 119 134 181 179 209 190 185 163 166 167 158 150 123 126 131 126 134 168 111 153 195 226 225 146 186 322 333 334 331 331 334 331 326 326 330 325 325 328 332 334 332 329 337
95 128 146 180 177 153 168 150 133 146 152 145 130 92 105 111 121 174 123 163 205 220 211 132 149 325 330 336 337 334 332 331 329 328 332 331 322 332 336 341 341 342 357 9
77 111 132 133 131 137 151 154 139 148 149 145 111 114 119 127 135 159 188 177 200 159 144 135 354 340 334 336 336 337 335 333 337 337 337 327 335 342 345 346 347 354 18 28
71 37 165 143 126 141 149 152 148 155 151 118 121 114 109 123 147 157 188 188 129 136 124 40 343 334 337 334 338 343 341 336 340 345 340 338 351 352 355 355 359 9 34 52